Regional Weather Roundup
Issued by NWS Goodland, KS

Home | Current Version | Previous Version | Text Only | Print | Product List | Glossary Off
Versions: 1 2 3 4 5 6 7 8 9 10 11 12 13 14 15 16 17 18 19 20 21 22 23 24 25 26 27 28 29 30 31 32 33 34 35 36 37 38 39 40 41 42 43 44 45 46 47 48 49 50

000
ASUS43 KGLD 281259
RWRGLD

GOODLAND FORECAST AREA HOURLY WEATHER ROUNDUP
NATIONAL WEATHER SERVICE GOODLAND KS
700 AM MDT FRI AUG 28 2015

...OFFICIAL OBSERVATIONS...

CITY           SKY/WX    TMP DP  RH WIND       PRES   REMARKS
GOODLAND KS    CLEAR     60  56  86 W8        30.05R
HILL CITY KS   CLEAR     68  64  87 W7        29.94R
IMPERIAL NEB   CLEAR     60  55  83 W5        30.01R
MCCOOK NEB     CLEAR     63  60  90 W10       29.97R
AKRON CO       PTCLDY    59  57  93 W10       30.14R
BURLINGTON CO  CLEAR     59  54  83 W8        30.10R
LIMON CO       CLEAR     57  54  89 W10       30.20R
$$

...UNOFFICIAL OBSERVATIONS...

CITY           SKY/WX    TMP DP  RH WIND       PRES   REMARKS
COLBY KS       CLEAR     63  61  94 W13       30.01S
GOVE KS          N/A     65  32  29 MISG        N/A
LENORA KS        N/A     66  32  28 MISG        N/A
NORTON KS      CLEAR     64  61  88 W13       29.92R
SHARON SPRINGS   N/A     62  57  85 NW9         N/A
KIT CARSON CO    N/A     58  54  87 MISG        N/A
YUMA CO          N/A     59  56  89 NW6         N/A
$$


USA.gov is the U.S. government's official web portal to all federal, state and local government web resources and services.